Вернуться в каталог

ENSHI XIDA SHANQUAN

АктивенНаукаSSO
NORAD 64962·PAYLOAD·🇨🇳 China

Запущен Jul 29, 2025 с Jiuquan Satellite Launch Center

Loading…

Ближайшие Пролёты (ближайшие 24 часа)

TLE

СвежийSource: Space-Track

Эпоха: Sep 14, 2026, 22:49 UTC

1 64962U 25160A   26257.95069517  .00048888  00000-0  92592-3 0  9991
2 64962  97.3551 337.0325 0005710 227.3388 132.7381 15.48197525 63278

Отслеживайте ENSHI XIDA SHANQUAN в реальном времени с AllMySat

Download on the App Store